Temperature
19 19 18 18 18 18 18 17 17 17 17 17 17 16 16 16 16 16 16 16 16 16 16 16 16 16 16 15 15 15 15 15 15 15 15 15 15 14 14 14 14 14 14
20 19 18 18 18 18 18 18 17 17 17 17 17 16 16 16 16 16 16 16 16 16 16 16 15 16 16 15 15 15 15 15 15 15 15 16 15 14 14 14 14 14 14
20 19 18 18 18 18 18 18 17 17 17 17 17 17 16 16 16 16 16 16 16 16 16 16 15 15 15 15 15 15 15 15 15 15 15 16 16 15 14 14 14 14 13
19 19 19 18 18 18 18 18 18 17 17 17 17 16 16 16 16 16 16 16 16 16 15 15 15 15 15 15 15 15 15 15 15 15 15 15 15 15 15 14 14 14 13
19 19 19 18 18 18 18 18 18 17 17 17 17 16 16 16 16 16 16 16 16 16 15 15 15 15 15 15 15 15 15 15 15 15 15 14 15 15 15 15 14 14 13
19 19 19 18 18 18 18 18 17 17 17 17 16 16 16 16 16 16 16 16 15 15 15 15 15 15 15 15 15 15 15 14 14 14 14 14 14 14 14 14 14 14 13
19 19 19 18 18 18 18 18 17 17 17 17 17 16 16 16 16 16 16 16 15 15 15 15 15 15 15 15 14 14 14 14 14 14 14 14 14 14 14 14 14 13 13
19 19 18 18 18 18 18 18 18 17 17 17 17 17 16 16 16 16 16 16 15 15 15 15 15 15 15 15 14 14 14 14 14 14 14 14 14 13 13 13 13 14 14
19 18 18 18 18 18 18 18 18 17 17 17 17 17 16 16 16 16 16 16 15 15 15 15 15 15 15 14 14 14 14 14 14 14 13 13 13 13 13 13 13 13 14
18 18 18 18 18 18 18 18 17 17 17 17 17 16 16 16 16 16 16 15 15 15 15 15 15 15 14 14 14 14 14 14 14 14 13 13 13 13 13 12 12 12 13
18 18 18 17 17 17 18 18 17 17 17 17 16 16 16 16 16 16 15 15 15 15 15 15 14 14 14 14 14 14 13 13 13 13 13 13 13 13 12 12 12 12 12
18 17 17 17 17 17 17 17 17 17 17 16 16 16 16 16 15 15 15 15 15 15 14 14 14 14 14 14 13 13 13 13 13 12 12 12 13 12 12 12 12 12 11
17 17 17 17 17 17 17 17 17 17 17 16 16 16 15 15 15 15 15 15 15 14 14 14 14 14 13 13 13 13 13 13 12 12 12 12 12 12 12 12 12 11 11
17 17 16 16 16 16 16 16 16 16 16 16 16 16 15 15 15 15 15 15 14 14 14 14 14 13 13 13 13 13 12 12 12 12 12 12 12 12 11 11 11 11 11
17 16 16 16 16 16 16 16 16 16 16 16 16 16 15 15 15 15 15 14 14 14 14 14 13 13 13 13 13 12 12 12 12 12 12 12 12 12 11 11 11 11 10
16 16 16 16 16 16 16 16 16 16 16 16 15 16 15 15 15 15 15 14 14 14 13 13 13 13 13 13 13 12 12 12 11 11 11 11 11 11 11 11 11 11 10
16 16 16 16 15 15 15 15 15 15 15 15 15 15 15 15 15 15 14 14 14 14 13 13 13 13 13 13 12 12 12 11 11 11 11 11 11 11 11 11 10 10 10
16 15 15 15 15 15 15 15 15 15 15 15 15 15 15 15 14 14 14 14 13 13 13 13 13 13 13 12 12 12 11 11 11 11 11 11 10 11 10 10 10 10 10
15 15 15 15 15 15 15 15 15 14 14 14 15 15 15 14 14 14 14 14 13 13 13 13 12 12 12 12 12 12 11 11 11 11 10 10 10 10 10 10 10 10 10
15 15 14 14 14 14 14 14 14 14 14 14 14 14 14 14 14 14 14 13 13 13 13 12 12 12 12 12 12 11 11 11 10 10 10 10 10 10 10 9 9 9 9
15 14 14 14 14 14 14 14 14 14 14 14 14 14 14 14 14 13 13 13 13 12 12 12 12 12 12 12 11 11 11 10 10 10 10 10 10 10 9 9 9 9 9
14 14 14 14 14 14 14 13 13 13 13 13 13 13 13 13 13 13 13 12 12 12 12 12 11 11 11 11 11 11 11 10 10 10 10 10 10 9 9 9 9 9 8
14 14 14 14 13 13 13 13 13 13 13 13 13 13 13 13 13 12 12 12 12 11 11 11 11 11 11 11 11 10 10 10 10 10 10 10 9 9 9 9 8 8 8
14 13 13 13 13 13 13 13 13 12 12 12 12 12 12 12 12 12 12 12 11 11 11 11 10 10 10 10 10 10 10 10 10 9 9 9 9 9 9 8 8 8 7
13 13 13 13 13 13 12 12 12 12 12 12 12 12 12 12 12 12 11 11 11 11 11 10 10 10 10 10 10 10 10 9 9 9 9 9 9 8 8 8 8 8 7
13 13 12 12 12 12 12 12 12 12 11 11 11 11 11 11 11 11 11 11 10 10 10 10 10 10 10 10 10 10 9 9 9 9 8 8 8 8 8 8 8 7 7
Wind_Speed
5 5 6 7 7 7 6 6 7 6 5 4 4 3 3 2 2 2 2 2 2 2 2 2 2 2 2 2 3 3 4 2 2 2 2 3 3 3 3 3 3 4 5
5 5 6 7 8 8 7 7 7 6 6 4 3 3 2 2 2 2 2 2 2 2 2 2 2 3 2 3 3 2 2 2 2 1 1 1 2 2 2 2 2 3 4
5 6 7 7 7 7 8 7 7 7 6 6 4 3 3 3 3 2 2 1 1 2 2 2 2 3 3 3 3 3 3 2 2 2 2 1 0 1 2 2 1 2 2
4 5 6 7 7 7 7 7 7 7 6 6 5 5 4 3 3 2 2 2 2 2 2 2 2 3 2 3 3 3 2 2 2 1 1 2 1 1 1 1 1 2 2
5 5 6 6 6 6 6 6 6 6 6 6 6 6 4 3 2 2 3 2 2 2 2 2 2 2 2 3 2 3 3 3 2 1 1 1 1 2 1 1 1 1 1
4 5 5 5 5 5 5 6 6 6 6 6 6 6 5 4 3 3 3 2 2 2 2 2 2 2 2 3 2 3 3 2 2 1 1 1 1 1 1 1 1 0 0
4 5 5 5 5 6 6 6 7 6 6 7 7 6 6 5 4 4 3 3 2 2 2 2 2 2 2 2 2 2 2 2 2 2 1 1 1 1 1 1 1 1 0
4 4 5 5 5 6 6 6 7 6 7 7 6 6 5 4 3 3 3 3 2 2 2 2 2 2 2 2 2 2 2 2 2 2 1 1 1 1 1 1 1 2 1
4 4 4 5 5 6 6 6 7 7 7 7 6 6 5 4 4 3 3 2 2 2 2 2 2 2 2 2 2 2 2 2 1 1 2 2 1 1 1 1 2 3 2
3 4 4 4 4 5 5 6 6 6 6 6 5 4 5 5 4 3 3 3 2 2 2 2 2 2 2 2 2 2 1 2 1 0 1 1 1 1 1 2 2 3 3
3 4 4 4 4 4 5 5 5 5 5 6 6 5 5 5 5 4 3 3 3 3 3 2 2 2 2 2 3 2 2 2 2 2 1 1 1 1 1 1 1 2 2
3 3 4 4 4 4 4 5 5 5 5 5 6 5 5 5 4 4 4 3 3 3 3 3 3 2 2 3 3 3 3 2 2 2 2 1 1 1 1 1 2 2 2
2 3 4 4 3 3 4 4 4 5 5 5 5 5 5 5 5 4 4 4 4 3 3 3 3 3 3 3 3 3 3 2 2 2 2 2 2 2 2 2 2 2 2
2 3 3 3 3 3 3 4 4 4 5 5 6 6 6 5 5 5 4 4 4 4 4 3 3 3 3 3 3 3 3 3 2 2 2 2 2 2 2 2 2 2 2
2 3 3 3 3 3 3 3 3 4 5 6 6 6 5 5 5 5 5 4 4 4 4 3 3 3 3 2 3 3 3 3 3 2 2 1 1 2 1 2 2 2 2
3 3 3 3 3 3 4 4 4 4 5 6 6 5 5 5 5 5 5 5 5 4 4 4 3 3 2 2 2 4 4 4 3 2 2 1 1 1 1 1 3 3 3
3 2 2 2 2 3 3 4 4 5 5 6 6 5 6 6 6 5 5 5 5 5 4 4 4 4 3 4 4 4 4 4 3 3 2 1 1 2 1 1 3 3 3
3 3 2 2 2 2 3 4 4 5 5 6 5 5 6 6 5 5 6 6 5 5 5 5 5 4 4 5 5 4 5 4 3 3 3 2 2 1 1 1 1 1 1
3 2 2 2 2 2 2 4 4 5 5 5 6 6 6 6 6 6 6 5 5 5 5 5 5 5 5 6 6 5 3 4 4 3 3 3 2 1 1 2 2 2 1
1 1 1 1 1 2 2 4 4 5 5 5 5 5 5 6 6 7 6 5 6 5 5 5 5 5 5 7 7 6 3 4 3 3 3 2 2 1 2 4 3 4 3
1 2 1 1 2 2 3 4 4 5 5 4 4 5 5 6 6 6 6 6 5 5 5 5 5 5 4 6 7 6 4 4 4 3 3 2 3 2 3 5 4 3 4
2 2 2 2 2 2 3 3 4 4 4 4 4 5 5 4 5 5 5 6 6 6 6 5 4 4 4 4 6 6 5 4 4 4 3 2 3 4 5 5 3 2 4
3 3 3 3 2 3 4 4 3 3 4 4 4 5 5 5 5 5 5 5 5 5 5 5 4 4 3 3 5 6 6 5 4 3 1 1 3 4 5 4 4 4 4
4 4 4 4 3 3 4 4 3 3 4 5 5 4 5 5 5 4 4 4 5 5 4 4 4 4 4 3 3 3 4 4 4 3 2 3 4 5 4 4 4 4 4
4 4 4 4 4 4 4 4 3 3 4 5 4 4 4 4 4 4 3 4 4 4 4 4 4 4 4 3 3 3 4 4 3 3 3 3 3 3 3 3 3 3 4
4 4 5 4 4 3 3 3 3 4 4 4 4 4 4 4 4 4 2 1 2 2 2 2 3 3 3 3 4 4 3 3 4 4 4 4 4 4 4 4 4 4 4
Wind_Direction
205 197 198 197 195 193 194 187 187 182 177 174 179 176 171 165 150 141 146 148 152 141 135 157 152 157 152 147 150 141 142 151 157 145 121 106 83 74 76 61 60 64 56
196 186 192 191 194 195 199 195 193 188 186 182 180 176 168 168 152 146 143 157 159 151 155 174 168 165 160 162 161 163 175 163 199 227 220 172 139 98 83 76 56 55 69
202 186 188 187 189 195 197 198 194 188 188 180 171 159 156 176 171 166 162 155 161 161 171 184 177 172 180 173 179 182 194 194 196 256 290 283 329 119 114 76 74 57 52
198 187 186 188 194 197 197 196 192 189 183 179 182 182 190 194 194 185 173 156 154 160 174 179 180 174 181 177 189 186 197 213 205 196 289 316 1 276 157 135 93 49 36
198 187 189 192 194 192 194 193 187 186 180 182 185 195 198 197 189 182 174 168 144 144 170 181 177 171 179 183 185 188 204 210 228 217 193 194 229 265 257 188 151 135 97
192 186 180 180 182 180 185 186 183 181 179 184 189 198 195 192 181 179 173 172 158 157 165 174 179 177 181 183 188 188 191 209 210 222 205 217 230 230 241 244 229 265 88
179 179 176 176 177 178 181 184 184 182 183 188 193 199 198 192 185 181 176 179 167 166 175 178 183 182 176 171 178 180 180 184 196 210 212 235 250 257 254 255 263 273 236
167 169 173 179 180 180 182 184 185 186 185 190 195 197 189 191 183 184 177 180 175 169 163 172 174 166 163 165 167 181 180 182 186 198 210 241 251 243 245 259 263 264 263
169 168 170 176 177 179 182 185 185 185 185 189 190 188 184 184 179 182 181 175 169 160 164 164 161 156 167 172 175 184 179 182 194 195 201 222 230 221 233 241 265 279 279
179 173 170 172 172 172 173 177 185 187 182 183 182 182 185 183 182 179 176 175 168 155 163 164 164 158 161 160 167 178 176 173 162 192 221 225 227 205 209 229 259 277 282
188 178 175 171 162 160 165 170 178 182 179 180 181 179 185 185 180 180 180 183 176 170 173 177 175 160 159 158 160 166 161 176 172 174 190 199 234 217 213 219 236 263 274
186 177 169 163 162 159 164 170 176 176 178 181 180 182 181 182 183 182 184 188 185 184 185 175 172 171 176 177 174 176 178 191 200 201 202 204 190 220 234 225 228 244 260
166 170 167 166 166 162 163 169 173 170 170 175 179 181 184 188 192 192 191 195 193 185 187 185 185 190 195 196 193 191 194 200 205 211 217 225 215 217 213 222 233 240 240
158 167 173 178 177 175 172 171 172 169 168 171 177 185 191 193 197 197 198 201 197 191 193 193 197 201 203 203 202 206 209 210 211 223 234 246 243 243 234 226 238 238 235
171 174 180 182 183 182 183 178 178 176 176 178 183 189 192 193 197 196 202 201 199 201 197 197 197 200 208 207 212 208 213 215 214 219 232 240 291 346 310 272 252 238 239
191 184 186 187 191 195 197 191 189 186 184 188 193 189 190 191 198 199 200 202 204 204 198 199 199 200 200 151 222 234 215 218 218 224 233 213 194 182 213 294 310 295 263
207 201 196 202 215 214 215 210 200 190 188 190 188 187 191 192 197 196 196 202 203 201 202 206 207 210 187 164 193 231 234 227 230 235 233 229 220 232 251 209 220 247 269
217 215 216 207 222 228 221 217 202 196 193 190 189 191 192 195 196 198 201 205 203 199 205 209 210 208 189 168 186 208 227 224 224 232 238 225 216 195 280 264 256 273 268
219 216 229 222 217 226 217 203 197 197 196 198 200 198 196 195 197 199 204 205 204 203 205 204 206 205 193 167 175 198 211 218 219 224 228 235 232 96 295 258 256 265 291
218 218 228 242 229 233 219 206 205 207 209 209 211 204 200 201 204 206 206 204 204 206 205 204 207 207 206 168 176 202 211 219 219 220 220 209 234 188 259 253 254 260 268
224 223 225 241 250 237 213 212 212 219 219 215 215 212 207 208 207 205 200 200 201 202 204 203 205 208 204 174 175 196 217 222 225 223 226 209 177 230 259 269 264 274 279
233 227 235 250 253 231 218 225 228 229 220 215 214 214 208 201 196 195 197 199 195 198 200 204 204 209 203 196 186 196 217 246 232 232 232 213 183 226 246 254 262 276 268
237 234 237 240 247 233 224 236 242 232 217 209 210 208 201 192 187 187 188 192 193 200 203 205 211 209 207 196 185 194 205 225 239 240 233 233 202 222 232 221 226 237 243
240 236 235 235 242 242 233 241 246 233 217 211 208 201 197 189 184 185 188 192 197 201 204 208 216 215 208 210 198 200 199 195 218 234 198 202 214 222 227 219 222 237 246
239 236 239 243 248 248 239 239 236 226 220 214 206 202 197 187 184 184 191 198 200 201 205 210 212 213 217 211 202 210 212 211 206 212 225 225 217 219 227 232 233 233 234
239 238 239 244 248 246 237 238 236 230 225 216 206 201 193 186 187 184 181 145 211 166 195 221 221 225 221 170 182 204 217 203 182 198 220 226 227 229 231 234 235 235 237
Height
1543 1545 1546 1547 1549 1551 1552 1554 1555 1556 1557 1558 1559 1560 1560 1561 1561 1561 1562 1562 1562 1562 1562 1562 1563 1563 1563 1563 1563 1563 1564 1564 1564 1565 1565 1565 1564 1564 1563 1562 1562 1561 1560
1542 1543 1544 1546 1548 1549 1551 1553 1554 1555 1556 1557 1558 1559 1560 1560 1561 1561 1561 1561 1562 1562 1562 1562 1562 1563 1563 1563 1563 1563 1564 1564 1564 1565 1565 1565 1566 1564 1564 1563 1562 1562 1561
1540 1541 1543 1544 1546 1548 1549 1551 1552 1554 1555 1556 1557 1558 1559 1559 1560 1560 1560 1561 1561 1561 1561 1561 1562 1562 1562 1563 1563 1563 1563 1564 1564 1565 1565 1565 1564 1565 1565 1564 1563 1562 1561
1539 1540 1541 1542 1544 1546 1548 1549 1551 1552 1554 1555 1556 1557 1558 1559 1559 1560 1560 1560 1560 1560 1560 1560 1561 1561 1562 1562 1562 1562 1563 1563 1564 1563 1563 1564 1564 1564 1565 1565 1563 1562 1561
1537 1538 1539 1541 1543 1544 1546 1548 1549 1551 1552 1554 1555 1556 1557 1558 1558 1559 1559 1559 1559 1559 1559 1560 1560 1560 1561 1561 1561 1561 1562 1562 1563 1563 1563 1563 1563 1563 1564 1564 1564 1562 1561
1535 1537 1538 1540 1541 1543 1544 1546 1548 1549 1551 1552 1554 1555 1556 1557 1557 1558 1558 1558 1559 1558 1558 1559 1559 1559 1560 1560 1560 1560 1560 1561 1561 1561 1562 1562 1562 1563 1563 1563 1562 1562 1561
1534 1535 1536 1538 1539 1541 1542 1544 1546 1548 1549 1551 1552 1554 1555 1556 1556 1557 1557 1557 1558 1558 1557 1558 1558 1558 1558 1559 1559 1559 1559 1559 1559 1560 1561 1561 1561 1561 1561 1562 1561 1561 1560
1533 1534 1535 1536 1538 1539 1541 1543 1544 1546 1547 1549 1551 1552 1553 1554 1555 1555 1556 1556 1557 1557 1557 1556 1557 1557 1557 1557 1557 1558 1558 1558 1558 1559 1559 1559 1560 1560 1560 1560 1560 1560 1560
1532 1533 1534 1535 1537 1538 1539 1541 1543 1545 1546 1548 1549 1551 1552 1552 1553 1554 1555 1555 1555 1555 1555 1555 1555 1556 1555 1556 1556 1556 1556 1557 1557 1557 1557 1558 1558 1558 1558 1558 1559 1560 1558
1531 1532 1533 1534 1536 1537 1539 1540 1542 1543 1545 1546 1547 1549 1550 1551 1552 1552 1553 1554 1554 1554 1554 1554 1554 1554 1554 1554 1554 1555 1555 1555 1555 1555 1556 1556 1556 1556 1556 1556 1557 1557 1557
1530 1531 1532 1533 1534 1536 1537 1539 1540 1542 1543 1544 1546 1547 1548 1549 1550 1551 1551 1552 1553 1553 1553 1553 1553 1554 1553 1553 1553 1554 1554 1554 1554 1554 1554 1554 1554 1554 1554 1554 1555 1555 1555
1529 1530 1531 1532 1533 1535 1536 1538 1539 1540 1541 1543 1544 1545 1546 1548 1549 1549 1550 1551 1551 1552 1552 1552 1552 1552 1552 1552 1552 1552 1552 1553 1553 1553 1553 1553 1552 1553 1553 1553 1553 1553 1552
1528 1529 1530 1531 1532 1533 1535 1536 1537 1538 1539 1541 1542 1544 1545 1546 1547 1548 1548 1549 1550 1550 1550 1551 1551 1551 1551 1551 1551 1551 1551 1551 1551 1551 1551 1551 1551 1551 1551 1551 1551 1551 1550
1527 1528 1529 1530 1531 1532 1533 1535 1536 1537 1538 1539 1540 1541 1543 1544 1545 1546 1547 1547 1548 1548 1549 1549 1549 1549 1549 1550 1550 1550 1550 1550 1550 1550 1550 1549 1549 1549 1549 1549 1549 1548 1548
1527 1527 1528 1529 1530 1531 1532 1533 1534 1535 1536 1537 1538 1539 1541 1542 1543 1544 1544 1545 1546 1546 1546 1547 1547 1547 1547 1548 1548 1548 1548 1548 1548 1548 1548 1547 1547 1547 1547 1547 1546 1546 1545
1526 1527 1527 1528 1528 1529 1530 1531 1532 1533 1534 1535 1536 1537 1538 1539 1540 1541 1542 1542 1543 1544 1544 1544 1545 1545 1545 1545 1545 1546 1546 1546 1546 1546 1546 1545 1545 1545 1544 1544 1544 1543 1543
1525 1525 1526 1526 1527 1528 1528 1529 1530 1530 1531 1532 1533 1534 1536 1537 1538 1538 1539 1539 1540 1541 1541 1542 1542 1542 1543 1543 1543 1543 1544 1544 1544 1544 1544 1543 1543 1542 1542 1541 1541 1541 1540
1523 1524 1525 1525 1525 1525 1526 1527 1527 1528 1528 1529 1530 1531 1532 1533 1535 1535 1536 1536 1537 1538 1538 1539 1539 1540 1540 1540 1540 1541 1541 1541 1541 1542 1541 1541 1541 1540 1539 1539 1539 1538 1537
1521 1522 1523 1523 1523 1523 1523 1524 1525 1525 1525 1526 1527 1528 1529 1530 1531 1532 1533 1534 1534 1535 1535 1536 1536 1536 1537 1537 1538 1538 1538 1538 1539 1539 1538 1538 1538 1537 1537 1537 1536 1535 1535
1519 1520 1520 1521 1521 1520 1521 1521 1522 1522 1523 1523 1524 1525 1525 1526 1527 1529 1530 1530 1531 1532 1533 1533 1533 1534 1534 1534 1534 1535 1535 1536 1536 1536 1535 1535 1535 1534 1534 1534 1533 1532 1532
1517 1517 1518 1518 1518 1518 1518 1518 1519 1519 1520 1520 1521 1521 1522 1523 1524 1525 1526 1527 1528 1529 1529 1530 1530 1530 1531 1531 1531 1532 1532 1532 1532 1532 1532 1532 1532 1531 1531 1531 1530 1529 1528
1515 1515 1515 1515 1515 1515 1515 1516 1515 1516 1516 1517 1517 1517 1518 1519 1520 1521 1522 1523 1524 1525 1526 1526 1527 1527 1527 1528 1528 1528 1528 1529 1529 1528 1529 1528 1528 1528 1528 1527 1526 1525 1525
1512 1512 1512 1512 1512 1512 1512 1513 1513 1512 1512 1512 1513 1513 1514 1515 1516 1517 1518 1519 1520 1521 1522 1523 1523 1523 1524 1524 1524 1524 1525 1525 1525 1525 1525 1525 1524 1524 1524 1523 1522 1522 1521
1509 1509 1509 1509 1509 1509 1509 1509 1509 1509 1509 1509 1509 1510 1510 1511 1512 1513 1514 1514 1515 1516 1518 1518 1519 1520 1520 1520 1520 1520 1521 1521 1521 1521 1521 1521 1521 1520 1519 1519 1518 1518 1517
1506 1506 1506 1506 1505 1505 1505 1506 1506 1505 1505 1505 1506 1506 1507 1508 1508 1509 1510 1511 1512 1513 1514 1514 1515 1515 1516 1516 1517 1516 1517 1517 1517 1517 1517 1517 1517 1516 1515 1515 1514 1514 1513
1502 1502 1502 1502 1502 1502 1502 1502 1502 1502 1502 1502 1502 1503 1503 1504 1505 1506 1507 1507 1508 1509 1510 1511 1512 1512 1513 1512 1512 1513 1513 1513 1513 1513 1513 1512 1512 1512 1511 1511 1510 1509 1509